Abakan, Russia

9:10 AM +07 on October 23, 2019 (GMT +0700)
Abakan

Weather History for UNAA - September, 2019

Change the Weather History Date:

Sunday, September 15, 2019

  Actual Average (WUND) Record (WUND)
Temperature  
Mean Temperature 54 °F -  
Max Temperature 64 °F - - (-1)
Min Temperature 44 °F - - (-1)
Degree Days  
Heating Degree Days 11    
Growing Degree Days 4 (Base 50)    
Moisture  
Dew Point 47 °F    
Average Humidity 77    
Maximum Humidity 94    
Minimum Humidity 49    
Precipitation  
Precipitation 0.00 in - - ()
Sea Level Pressure  
Sea Level Pressure 30.00 in    
Wind  
Wind Speed 6 mph ()    
Max Wind Speed 18 mph    
Max Gust Speed -    
Visibility 6.2 miles    
Events Rain    
Averages and records for this station are not official NWS values.
T = Trace of Precipitation, MM = Missing Value Source: Averaged Metar Reports

Daily Weather History Graph

Daily Weather History Graph

Search for Another Location

Airport or City:

Astronomy

Sep. 15, 2019 Rise Set
Actual Time 6:26 AM +07 7:12 PM +07
Civil Twilight 5:51 AM +07 7:47 PM +07
Nautical Twilight 5:08 AM +07 8:30 PM +07
Astronomical Twilight 4:22 AM +07 9:15 PM +07
Moon 8:02 PM +07 (9/15) 7:07 AM +07 (9/15)
Length of Visible Light 13h 56m
Length of Day
12h 45m
Full, 99% of the Moon is Illuminated
Sep 15
Full
Sep 22
Last Quarter
Sep 29
New
Oct 5
First Quarter
Oct 14
Full

Hourly Weather History & Observations

Time (+07) Temp. Windchill Dew Point Humidity Pressure Visibility Wind Dir Wind Speed Gust Speed Precip Events Conditions
12:00 AM 46.4 °F - 44.6 °F 93% 30.06 in - Calm Calm - N/A   Clear
12:30 AM 46.4 °F - 44.6 °F 93% 30.04 in - Calm Calm - N/A   Clear
1:00 AM 46.4 °F - 44.6 °F 93% 30.04 in - Calm Calm - N/A   Clear
1:30 AM 44.6 °F - 42.8 °F 93% 30.04 in 5.6 mi NW 2.2 mph - N/A   Unknown
2:00 AM 44.6 °F - 42.8 °F 93% 30.04 in - Calm Calm - N/A   Clear
2:30 AM 44.6 °F - 42.8 °F 93% 30.04 in 5.6 mi Calm Calm - N/A   Unknown
3:00 AM 44.6 °F - 42.8 °F 93% 30.04 in - South 2.2 mph - N/A   Clear
3:30 AM 44.6 °F 42.3 °F 42.8 °F 93% 30.04 in - SSW 4.5 mph - N/A   Clear
4:00 AM 44.6 °F 40.8 °F 42.8 °F 93% 30.04 in - SSW 6.7 mph - N/A   Clear
4:30 AM 46.4 °F 44.4 °F 44.6 °F 93% 30.04 in - SSW 4.5 mph - N/A   Clear
5:00 AM 48.2 °F - 44.6 °F 87% 30.01 in - SSW 2.2 mph - N/A   Clear
5:30 AM 50.0 °F - 44.6 °F 82% 30.01 in 6.2 mi SW 2.2 mph - N/A Rain Light Rain Showers
6:00 AM 50.0 °F - 46.4 °F 87% 30.01 in 6.2 mi South 4.5 mph - N/A Rain Light Rain Showers
6:30 AM 50.0 °F - 46.4 °F 87% 30.01 in 6.2 mi South 2.2 mph - N/A Rain Light Rain Showers
7:00 AM 50.0 °F - 46.4 °F 87% 30.01 in 6.2 mi SSE 4.5 mph - N/A Rain Light Rain Showers
7:30 AM 50.0 °F - 48.2 °F 94% 29.98 in 6.2 mi South 6.7 mph - N/A Rain Light Rain Showers
8:30 AM 51.8 °F - 48.2 °F 88% 29.98 in 6.2 mi SSW 6.7 mph - N/A Rain Light Rain Showers
9:00 AM 51.8 °F - 48.2 °F 88% 29.98 in 6.2 mi SW 8.9 mph - N/A   Scattered Clouds
9:30 AM 51.8 °F - 48.2 °F 88% 29.98 in 6.2 mi SW 11.2 mph - N/A   Scattered Clouds
10:00 AM 53.6 °F - 48.2 °F 82% 29.98 in 6.2 mi SW 13.4 mph - N/A Rain Light Rain Showers
10:30 AM 55.4 °F - 48.2 °F 77% 29.98 in 6.2 mi SSW 15.7 mph - N/A   Scattered Clouds
11:00 AM 55.4 °F - 48.2 °F 77% 29.98 in 6.2 mi SSW 15.7 mph - N/A   Scattered Clouds
11:30 AM 57.2 °F - 50.0 °F 77% 29.98 in - SW 17.9 mph - N/A   Clear
12:00 PM 57.2 °F - 50.0 °F 77% 29.98 in - SSW 15.7 mph - N/A   Clear
12:30 PM 60.8 °F - 50.0 °F 68% 29.98 in - SSW 15.7 mph - N/A   Clear
1:00 PM 59.0 °F - 50.0 °F 72% 29.98 in 6.2 mi SW 8.9 mph - N/A Rain Light Rain Showers
1:30 PM 60.8 °F - 46.4 °F 59% 29.98 in 6.2 mi WSW 13.4 mph - N/A   Scattered Clouds
2:00 PM 62.6 °F - 46.4 °F 55% 29.95 in 6.2 mi SW 11.2 mph - N/A   Scattered Clouds
2:30 PM 62.6 °F - 44.6 °F 52% 29.95 in 6.2 mi WSW 13.4 mph - N/A   Scattered Clouds
3:00 PM 64.4 °F - 44.6 °F 49% 29.95 in - WSW 15.7 mph - N/A   Clear
3:30 PM 62.6 °F - 46.4 °F 55% 29.95 in - WSW 11.2 mph - N/A   Clear
4:00 PM 60.8 °F - 46.4 °F 59% 29.95 in 6.2 mi WSW 11.2 mph - N/A Rain Light Rain Showers
4:30 PM 60.8 °F - 44.6 °F 55% 29.95 in 6.2 mi WSW 11.2 mph - N/A   Scattered Clouds
5:00 PM 62.6 °F - 44.6 °F 52% 29.98 in - WSW 13.4 mph - N/A   Clear
5:30 PM 60.8 °F - 46.4 °F 59% 29.98 in - WSW 11.2 mph - N/A   Clear
6:00 PM 60.8 °F - 46.4 °F 59% 29.98 in - WSW 11.2 mph - N/A   Clear
6:30 PM 60.8 °F - 46.4 °F 59% 29.98 in - WSW 11.2 mph - N/A   Clear
7:30 PM 59.0 °F - 46.4 °F 63% 29.98 in - SW 8.9 mph - N/A   Clear
8:00 PM 57.2 °F - 46.4 °F 67% 29.98 in - SW 8.9 mph - N/A   Clear
8:30 PM 57.2 °F - 48.2 °F 72% 30.01 in - SW 11.2 mph - N/A   Clear
9:00 PM 57.2 °F - 48.2 °F 72% 30.01 in 6.2 mi SW 8.9 mph - N/A Rain Light Rain Showers
9:30 PM 55.4 °F - 50.0 °F 82% 30.01 in 6.2 mi SW 6.7 mph - N/A Rain Light Rain Showers
10:00 PM 53.6 °F - 50.0 °F 88% 30.01 in 6.2 mi SSW 4.5 mph - N/A Rain Light Rain Showers
10:30 PM 53.6 °F - 50.0 °F 88% 30.01 in 6.2 mi SSW 6.7 mph - N/A Rain Light Rain Showers
11:00 PM 55.4 °F - 50.0 °F 82% 30.01 in 6.2 mi SSW 6.7 mph - N/A Rain Light Rain Showers
11:30 PM 53.6 °F - 50.0 °F 88% 30.01 in 6.2 mi SW 8.9 mph - N/A Rain Light Rain Showers